カタログに戻る

GLOBALSTAR M105

運用中通信LEO
NORAD 100331·PAYLOAD·🇺🇸 United States

打ち上げ Aug 16, 2026 から Cape Canaveral Space Force Station

Loading…

次のパス (今後24時間)

TLE

最新Source: Space-Track

元期: Sep 14, 2026, 14:30 UTC

1 A0331U 26185G   26257.60483673  .00000225  00000-0  79601-4 0  9994
2 A0331  51.9950 110.8855 0008844 328.2922  31.7501 14.63940762  4326

AllMySatでGLOBALSTAR M105をリアルタイム追跡

Download on the App Store